,,,PA_Meas_PMT16A,,PR_Meas_QMR101_102,,RH_Meas_QMH101,,SR_Meas_QMS101,,TA_Meas_QMH101,,GenWind,,GenWind,
date,time,status,PA,status,PR,status,RH,status,SR,status,TA,status,DirAvg,status,SpdAvg,
2009-04-17, 00:00:05,VALID,998.934,VALID,0,VALID,88.7249,VALID,0,VALID,24.716,VALID,141,VALID,1.25117,
2009-04-17, 00:01:05,VALID,998.938,VALID,0,VALID,88.7706,VALID,0,VALID,24.757,VALID,158,VALID,1.06602,
2009-04-17, 00:02:05,VALID,998.926,VALID,0,VALID,88.7401,VALID,0,VALID,24.7356,VALID,153,VALID,0.985156,
2009-04-17, 00:03:05,VALID,998.93,VALID,0,VALID,88.7783,VALID,0,VALID,24.7356,VALID,142,VALID,1.59453,
2009-04-17, 00:04:05,VALID,998.938,VALID,0,VALID,88.8393,VALID,0,VALID,24.7551,VALID,146,VALID,1.15664,
2009-04-17, 00:05:05,VALID,998.925,VALID,0,VALID,88.8469,VALID,0,VALID,24.7356,VALID,155,VALID,1.01953,
2009-04-17, 00:06:05,VALID,998.922,VALID,0,VALID,88.8927,VALID,0,VALID,24.7374,VALID,146,VALID,1.28398,
2009-04-17, 00:07:05,VALID,998.915,VALID,0,VALID,88.908,VALID,0,VALID,24.7356,VALID,133,VALID,1.02656,
2009-04-17, 00:08:05,VALID,998.91,VALID,0,VALID,88.9232,VALID,0,VALID,24.757,VALID,149,VALID,1.06367,
2009-04-17, 00:09:05,VALID,998.91,VALID,0,VALID,88.9309,VALID,0,VALID,24.7374,VALID,148,VALID,1.04062,
2009-04-17, 00:10:05,VALID,998.848,VALID,0,VALID,88.9309,VALID,0,VALID,24.7374,VALID,142,VALID,1.21523,
2009-04-17, 00:11:05,VALID,998.865,VALID,0,VALID,88.9385,VALID,0,VALID,24.7765,VALID,140,VALID,1.01992,
2009-04-17, 00:12:05,VALID,998.853,VALID,0,VALID,88.9461,VALID,0,VALID,24.7765,VALID,153,VALID,1.21484,
2009-04-17, 00:13:05,VALID,998.815,VALID,0,VALID,88.9461,VALID,0,VALID,24.7356,VALID,152,VALID,1.22852,
2009-04-17, 00:14:05,VALID,998.814,VALID,0,VALID,88.9537,VALID,0,VALID,24.757,VALID,158,VALID,0.960938,
2009-04-17, 00:15:05,VALID,998.806,VALID,0,VALID,88.7096,VALID,0,VALID,24.7551,VALID,136,VALID,1.1875,
2009-04-17, 00:16:05,VALID,998.792,VALID,0,VALID,88.6333,VALID,0,VALID,24.7941,VALID,155,VALID,0.948438,
2009-04-17, 00:17:05,VALID,998.757,VALID,0,VALID,88.5799,VALID,0,VALID,24.835,VALID,127,VALID,0.564062,
2009-04-17, 00:18:05,VALID,998.75,VALID,0,VALID,88.5265,VALID,0,VALID,24.8136,VALID,131,VALID,1.21563,
2009-04-17, 00:19:05,VALID,998.743,VALID,0,VALID,88.4883,VALID,0,VALID,24.8546,VALID,151,VALID,0.769141,
2009-04-17, 00:20:05,VALID,998.726,VALID,0,VALID,88.4502,VALID,0,VALID,24.835,VALID,153,VALID,1.17305,
2009-04-17, 00:21:05,VALID,998.754,VALID,0,VALID,88.4807,VALID,0,VALID,24.8546,VALID,150,VALID,1.11992,
2009-04-17, 00:22:05,VALID,998.72,VALID,0,VALID,88.4426,VALID,0,VALID,24.8546,VALID,155,VALID,0.985547,
2009-04-17, 00:23:05,VALID,998.76,VALID,0,VALID,88.4197,VALID,0,VALID,24.8332,VALID,144,VALID,0.86875,
2009-04-17, 00:24:05,VALID,998.73,VALID,0,VALID,88.3586,VALID,0,VALID,24.8546,VALID,141,VALID,1.19297,
2009-04-17, 00:25:05,VALID,998.716,VALID,0,VALID,88.4044,VALID,0,VALID,24.8546,VALID,160,VALID,0.757422,
2009-04-17, 00:26:05,VALID,998.738,VALID,0,VALID,88.412,VALID,0,VALID,24.8546,VALID,160,VALID,0.461719,
2009-04-17, 00:27:05,VALID,998.689,VALID,0,VALID,88.3434,VALID,0,VALID,24.835,VALID,179,VALID,0.769531,
2009-04-17, 00:28:05,VALID,998.697,VALID,0,VALID,88.3586,VALID,0,VALID,24.835,VALID,173,VALID,0.657812,
2009-04-17, 00:29:05,VALID,998.679,VALID,0,VALID,88.3739,VALID,0,VALID,24.835,VALID,169,VALID,0.220313,
2009-04-17, 00:30:05,VALID,998.649,VALID,0,VALID,88.3815,VALID,0,VALID,24.8546,VALID,170,VALID,0.341797,
2009-04-17, 00:31:05,VALID,998.627,VALID,0,VALID,88.4273,VALID,0,VALID,24.8546,VALID,170,VALID,0.337109,
2009-04-17, 00:32:05,VALID,998.612,VALID,0,VALID,88.4502,VALID,0,VALID,24.835,VALID,170,VALID,0.301172,
2009-04-17, 00:33:05,VALID,998.603,VALID,0,VALID,88.5494,VALID,0,VALID,24.8332,VALID,185,VALID,0.443359,
2009-04-17, 00:34:05,VALID,998.581,VALID,0,VALID,88.6638,VALID,0,VALID,24.835,VALID,185,VALID,0.364844,
2009-04-17, 00:35:05,VALID,998.561,VALID,0,VALID,88.9614,VALID,0,VALID,24.7356,VALID,185,VALID,0.353906,
2009-04-17, 00:36:05,VALID,998.538,VALID,0,VALID,89.4497,VALID,0,VALID,24.6398,VALID,309,VALID,0.617969,
2009-04-17, 00:37:05,VALID,998.559,VALID,0,VALID,90.06,VALID,0,VALID,24.4818,VALID,311,VALID,0.645312,
2009-04-17, 00:38:05,VALID,998.531,VALID,0,VALID,90.5407,VALID,0,VALID,24.4056,VALID,311,VALID,0.65625,
2009-04-17, 00:39:05,VALID,998.521,VALID,0,VALID,90.9374,VALID,0,VALID,24.347,VALID,311,VALID,0.623047,
2009-04-17, 00:40:05,VALID,998.505,VALID,0,VALID,91.1511,VALID,0,VALID,24.269,VALID,311,VALID,0.400781,
2009-04-17, 00:41:05,VALID,998.483,VALID,0,VALID,91.3266,VALID,0,VALID,24.2104,VALID,311,VALID,0.291016,
2009-04-17, 00:42:05,VALID,998.5,VALID,0,VALID,91.6775,VALID,0,VALID,24.1519,VALID,311,VALID,0.317578,
2009-04-17, 00:43:05,VALID,998.521,VALID,0,VALID,91.9751,VALID,0,VALID,24.1128,VALID,311,VALID,0.248828,
2009-04-17, 00:44:05,VALID,998.476,VALID,0,VALID,92.1277,VALID,0,VALID,24.0738,VALID,311,VALID,0.0949219,
2009-04-17, 00:45:05,VALID,998.459,VALID,0,VALID,92.3413,VALID,0,VALID,24.0543,VALID,311,VALID,0.125,
2009-04-17, 00:46:05,VALID,998.467,VALID,0,VALID,92.471,VALID,0,VALID,24.0348,VALID,311,VALID,0.131641,
2009-04-17, 00:47:05,VALID,998.463,VALID,0,VALID,92.532,VALID,0,VALID,24.0329,VALID,311,VALID,0.161719,
2009-04-17, 00:48:05,VALID,998.435,VALID,0,VALID,92.5854,VALID,0,VALID,24.0134,VALID,311,VALID,0.130469,
2009-04-17, 00:49:05,VALID,998.407,VALID,0,VALID,92.6617,VALID,0,VALID,24.0543,VALID,311,VALID,0.30625,
2009-04-17, 00:50:05,VALID,998.409,VALID,0,VALID,92.7304,VALID,0,VALID,24.0543,VALID,284,VALID,0.472656,
2009-04-17, 00:51:05,VALID,998.396,VALID,0,VALID,92.7304,VALID,0,VALID,24.072,VALID,279,VALID,0.25,
2009-04-17, 00:52:05,VALID,998.398,VALID,0,VALID,92.5702,VALID,0,VALID,24.072,VALID,279,VALID,0.0769531,
2009-04-17, 00:53:05,VALID,998.363,VALID,0,VALID,92.532,VALID,0,VALID,24.0933,VALID,279,VALID,0.15,
2009-04-17, 00:54:05,VALID,998.387,VALID,0,VALID,92.6007,VALID,0,VALID,24.0738,VALID,279,VALID,0,
2009-04-17, 00:55:05,VALID,998.318,VALID,0,VALID,92.6388,VALID,0,VALID,24.0543,VALID,297,VALID,0.591406,
2009-04-17, 00:56:05,VALID,998.307,VALID,0,VALID,92.7533,VALID,0,VALID,24.0153,VALID,301,VALID,0.498437,
2009-04-17, 00:57:05,VALID,998.304,VALID,0,VALID,92.8525,VALID,0,VALID,24.0153,VALID,301,VALID,0.438281,
2009-04-17, 00:58:05,VALID,998.28,VALID,0,VALID,92.9135,VALID,0,VALID,24.0153,VALID,301,VALID,0.305078,
2009-04-17, 00:59:05,VALID,998.291,VALID,0,VALID,92.9745,VALID,0,VALID,23.9957,VALID,301,VALID,0.228906,
2009-04-17, 01:00:05,VALID,998.26,VALID,0,VALID,93.0737,VALID,0,VALID,23.9762,VALID,301,VALID,0.183594,
2009-04-17, 01:01:05,VALID,998.249,VALID,0,VALID,93.1271,VALID,0,VALID,23.9567,VALID,293,VALID,0.312109,
2009-04-17, 01:02:05,VALID,998.264,VALID,0,VALID,93.15,VALID,0,VALID,23.9567,VALID,293,VALID,0.1125,
2009-04-17, 01:03:05,VALID,998.249,VALID,0,VALID,93.1577,VALID,0,VALID,23.9354,VALID,293,VALID,0,
2009-04-17, 01:04:05,VALID,998.236,VALID,0,VALID,93.1348,VALID,0,VALID,23.9354,VALID,293,VALID,0,
2009-04-17, 01:05:05,VALID,998.253,VALID,0,VALID,93.1577,VALID,0,VALID,23.9372,VALID,214,VALID,0.364453,
2009-04-17, 01:06:05,VALID,998.229,VALID,0,VALID,93.1653,VALID,0,VALID,23.9354,VALID,172,VALID,0.00429688,
2009-04-17, 01:07:05,VALID,998.212,VALID,0,VALID,93.1119,VALID,0,VALID,23.9762,VALID,172,VALID,0.266016,
2009-04-17, 01:08:05,VALID,998.223,VALID,0,VALID,93.0508,VALID,0,VALID,23.9762,VALID,172,VALID,0.266797,
2009-04-17, 01:09:05,VALID,998.189,VALID,0,VALID,93.0356,VALID,0,VALID,23.9957,VALID,157,VALID,0.459766,
2009-04-17, 01:10:05,VALID,998.176,VALID,0,VALID,92.9211,VALID,0,VALID,23.9957,VALID,156,VALID,0.402734,
2009-04-17, 01:11:05,VALID,998.154,VALID,0,VALID,92.6312,VALID,0,VALID,24.0348,VALID,152,VALID,0.419922,
2009-04-17, 01:12:05,VALID,998.138,VALID,0,VALID,92.4252,VALID,0,VALID,24.0348,VALID,152,VALID,0.303516,
2009-04-17, 01:13:05,VALID,998.15,VALID,0,VALID,92.2726,VALID,0,VALID,24.0329,VALID,152,VALID,0.282813,
2009-04-17, 01:14:05,VALID,998.131,VALID,0,VALID,92.1887,VALID,0,VALID,24.0543,VALID,152,VALID,0.231641,
2009-04-17, 01:15:05,VALID,998.119,VALID,0,VALID,92.1582,VALID,0,VALID,24.0348,VALID,152,VALID,0.200391,
2009-04-17, 01:16:05,VALID,998.144,VALID,0,VALID,92.1887,VALID,0,VALID,24.0153,VALID,144,VALID,0.495703,
2009-04-17, 01:17:05,VALID,998.128,VALID,0,VALID,92.5015,VALID,0,VALID,23.9957,VALID,84,VALID,0.777344,
2009-04-17, 01:18:05,VALID,998.092,VALID,0,VALID,92.6312,VALID,0,VALID,23.9549,VALID,84,VALID,0.73125,
2009-04-17, 01:19:05,VALID,998.089,VALID,0,VALID,92.6846,VALID,0,VALID,23.978,VALID,84,VALID,0.719141,
2009-04-17, 01:20:05,VALID,998.085,VALID,0,VALID,92.7914,VALID,0,VALID,23.9762,VALID,82,VALID,0.766406,
2009-04-17, 01:21:05,VALID,998.086,VALID,0,VALID,92.9211,VALID,0,VALID,23.9762,VALID,81,VALID,0.701563,
2009-04-17, 01:22:05,VALID,998.024,VALID,0,VALID,93.1348,VALID,0,VALID,23.9762,VALID,76,VALID,0.953906,
2009-04-17, 01:23:05,VALID,998.063,VALID,0,VALID,93.0356,VALID,0,VALID,23.9762,VALID,58,VALID,0.967188,
2009-04-17, 01:24:05,VALID,998.049,VALID,0,VALID,92.9669,VALID,0,VALID,23.9567,VALID,58,VALID,0.879687,
2009-04-17, 01:25:05,VALID,998.02,VALID,0,VALID,92.9364,VALID,0,VALID,23.9372,VALID,59,VALID,0.703125,
2009-04-17, 01:26:05,VALID,998.021,VALID,0,VALID,93.0356,VALID,0,VALID,23.9177,VALID,59,VALID,0.661719,
2009-04-17, 01:27:05,VALID,997.992,VALID,0,VALID,93.1424,VALID,0,VALID,23.9177,VALID,59,VALID,0.710156,
2009-04-17, 01:28:05,VALID,997.993,VALID,0,VALID,93.1729,VALID,0,VALID,23.9177,VALID,59,VALID,0.6125,
2009-04-17, 01:29:05,VALID,997.971,VALID,0,VALID,93.2034,VALID,0,VALID,23.8982,VALID,59,VALID,0.578516,
2009-04-17, 01:30:05,VALID,997.974,VALID,0,VALID,93.1729,VALID,0,VALID,23.8573,VALID,59,VALID,0.351172,
2009-04-17, 01:31:05,VALID,997.975,VALID,0,VALID,93.2263,VALID,0,VALID,23.8786,VALID,59,VALID,0.219141,
2009-04-17, 01:32:05,VALID,997.983,VALID,0,VALID,93.2721,VALID,0,VALID,23.8591,VALID,59,VALID,0.199609,
2009-04-17, 01:33:05,VALID,997.993,VALID,0,VALID,93.2874,VALID,0,VALID,23.8396,VALID,59,VALID,0,
2009-04-17, 01:34:05,VALID,998.007,VALID,0,VALID,93.3103,VALID,0,VALID,23.8183,VALID,59,VALID,0,
2009-04-17, 01:35:05,VALID,998.009,VALID,0,VALID,93.3713,VALID,0,VALID,23.8396,VALID,59,VALID,0,
2009-04-17, 01:36:05,VALID,997.988,VALID,0,VALID,93.44,VALID,0,VALID,23.8006,VALID,59,VALID,0,
2009-04-17, 01:37:05,VALID,997.956,VALID,0,VALID,93.5391,VALID,0,VALID,23.8006,VALID,59,VALID,0,
2009-04-17, 01:38:05,VALID,997.98,VALID,0,VALID,93.5926,VALID,0,VALID,23.8006,VALID,59,VALID,0,
2009-04-17, 01:39:05,VALID,997.979,VALID,0,VALID,93.6383,VALID,0,VALID,23.8006,VALID,59,VALID,0,
2009-04-17, 01:40:05,VALID,997.955,VALID,0,VALID,93.6765,VALID,0,VALID,23.7811,VALID,59,VALID,0,
2009-04-17, 01:41:05,VALID,997.969,VALID,0,VALID,93.7451,VALID,0,VALID,23.8006,VALID,59,VALID,0,
2009-04-17, 01:42:05,VALID,997.99,VALID,0,VALID,93.768,VALID,0,VALID,23.7793,VALID,59,VALID,0,
2009-04-17, 01:43:05,VALID,997.952,VALID,0,VALID,93.7757,VALID,0,VALID,23.7811,VALID,59,VALID,0,
2009-04-17, 01:44:05,VALID,997.946,VALID,0,VALID,93.8062,VALID,0,VALID,23.7811,VALID,59,VALID,0,
2009-04-17, 01:45:05,VALID,997.953,VALID,0,VALID,93.8291,VALID,0,VALID,23.7811,VALID,59,VALID,0,
2009-04-17, 01:46:04,VALID,997.931,VALID,0,VALID,93.8367,VALID,0,VALID,23.7597,VALID,59,VALID,0,
2009-04-17, 01:47:04,VALID,997.951,VALID,0,VALID,93.8901,VALID,0,VALID,23.7811,VALID,59,VALID,0.177344,
2009-04-17, 01:48:04,VALID,997.926,VALID,0,VALID,93.9283,VALID,0,VALID,23.7811,VALID,59,VALID,0.325781,
2009-04-17, 01:49:04,VALID,997.941,VALID,0,VALID,93.9283,VALID,0,VALID,23.7811,VALID,59,VALID,0.317187,
2009-04-17, 01:50:04,VALID,997.914,VALID,0,VALID,93.9435,VALID,0,VALID,23.7811,VALID,59,VALID,0.169531,
2009-04-17, 01:51:04,VALID,997.897,VALID,0,VALID,93.9588,VALID,0,VALID,23.7811,VALID,59,VALID,0.230469,
2009-04-17, 01:52:04,VALID,997.87,VALID,0,VALID,93.9511,VALID,0,VALID,23.7597,VALID,59,VALID,0.189844,
2009-04-17, 01:53:04,VALID,997.873,VALID,0,VALID,93.9435,VALID,0,VALID,23.7597,VALID,59,VALID,0.197266,
2009-04-17, 01:54:04,VALID,997.846,VALID,0,VALID,93.9817,VALID,0,VALID,23.7811,VALID,59,VALID,0.231641,
2009-04-17, 01:55:04,VALID,997.836,VALID,0,VALID,94.0122,VALID,0,VALID,23.7811,VALID,59,VALID,0.289453,
2009-04-17, 01:56:04,VALID,997.845,VALID,0,VALID,94.0427,VALID,0,VALID,23.7811,VALID,59,VALID,0.245312,
2009-04-17, 01:57:04,VALID,997.836,VALID,0,VALID,94.0427,VALID,0,VALID,23.7811,VALID,59,VALID,0.260156,
2009-04-17, 01:58:04,VALID,997.847,VALID,0,VALID,94.0656,VALID,0,VALID,23.7811,VALID,59,VALID,0.225391,
2009-04-17, 01:59:04,VALID,997.803,VALID,0,VALID,94.058,VALID,0,VALID,23.7616,VALID,59,VALID,0.149609,
2009-04-17, 02:00:04,VALID,997.818,VALID,0,VALID,94.1114,VALID,0,VALID,23.7616,VALID,59,VALID,0.242578,
2009-04-17, 02:01:04,VALID,997.787,VALID,0,VALID,94.0961,VALID,0,VALID,23.742,VALID,59,VALID,0.164063,
2009-04-17, 02:02:04,VALID,997.749,VALID,0,VALID,94.0732,VALID,0,VALID,23.7207,VALID,59,VALID,0.185156,
2009-04-17, 02:03:04,VALID,997.766,VALID,0,VALID,94.0198,VALID,0,VALID,23.7012,VALID,59,VALID,0.265625,
2009-04-17, 02:04:04,VALID,997.758,VALID,0,VALID,94.0045,VALID,0,VALID,23.664,VALID,59,VALID,0.360547,
2009-04-17, 02:05:04,VALID,997.704,VALID,0,VALID,93.974,VALID,0,VALID,23.6445,VALID,59,VALID,0.465625,
2009-04-17, 02:06:04,VALID,997.714,VALID,0,VALID,94.058,VALID,0,VALID,23.6054,VALID,59,VALID,0.377734,
2009-04-17, 02:07:04,VALID,997.723,VALID,0,VALID,94.2182,VALID,0,VALID,23.5859,VALID,59,VALID,0.255078,
2009-04-17, 02:08:04,VALID,997.718,VALID,0,VALID,94.3326,VALID,0,VALID,23.6054,VALID,59,VALID,0.165234,
2009-04-17, 02:09:04,VALID,997.697,VALID,0,VALID,94.4089,VALID,0,VALID,23.625,VALID,59,VALID,0.0929687,
2009-04-17, 02:10:04,VALID,997.718,VALID,0,VALID,94.325,VALID,0,VALID,23.5646,VALID,59,VALID,0,
2009-04-17, 02:11:04,VALID,997.716,VALID,0,VALID,94.3326,VALID,0,VALID,23.5664,VALID,59,VALID,0,
2009-04-17, 02:12:04,VALID,997.707,VALID,0,VALID,94.325,VALID,0,VALID,23.5274,VALID,59,VALID,0,
2009-04-17, 02:13:04,VALID,997.714,VALID,0,VALID,94.3479,VALID,0,VALID,23.5274,VALID,59,VALID,0,
2009-04-17, 02:14:04,VALID,997.714,VALID,0,VALID,94.4394,VALID,0,VALID,23.5061,VALID,59,VALID,0,
2009-04-17, 02:15:04,VALID,997.739,VALID,0,VALID,94.4623,VALID,0,VALID,23.5061,VALID,59,VALID,0,
2009-04-17, 02:16:04,VALID,997.71,VALID,0,VALID,94.5005,VALID,0,VALID,23.5274,VALID,59,VALID,0,
2009-04-17, 02:17:04,VALID,997.717,VALID,0,VALID,94.5768,VALID,0,VALID,23.5274,VALID,59,VALID,0,
2009-04-17, 02:18:04,VALID,997.708,VALID,0,VALID,94.6302,VALID,0,VALID,23.5469,VALID,59,VALID,0,
2009-04-17, 02:19:04,VALID,997.733,VALID,0,VALID,94.6378,VALID,0,VALID,23.5664,VALID,59,VALID,0,
2009-04-17, 02:20:04,VALID,997.699,VALID,0,VALID,94.6226,VALID,0,VALID,23.5451,VALID,59,VALID,0,
2009-04-17, 02:21:04,VALID,997.7,VALID,0,VALID,94.6073,VALID,0,VALID,23.5256,VALID,59,VALID,0.015625,
2009-04-17, 02:22:04,VALID,997.733,VALID,0,VALID,94.5691,VALID,0,VALID,23.5274,VALID,59,VALID,0.182031,
2009-04-17, 02:23:04,VALID,997.729,VALID,0,VALID,94.5844,VALID,0,VALID,23.5061,VALID,59,VALID,0.242578,
2009-04-17, 02:24:04,VALID,997.712,VALID,0,VALID,94.6454,VALID,0,VALID,23.4866,VALID,59,VALID,0.294141,
2009-04-17, 02:25:04,VALID,997.733,VALID,0,VALID,94.5844,VALID,0,VALID,23.4671,VALID,59,VALID,0.353906,
2009-04-17, 02:26:04,VALID,997.706,VALID,0,VALID,94.5768,VALID,0,VALID,23.4475,VALID,59,VALID,0.516797,
2009-04-17, 02:27:04,VALID,997.73,VALID,0,VALID,94.6073,VALID,0,VALID,23.4493,VALID,48,VALID,0.650391,
2009-04-17, 02:28:04,VALID,997.707,VALID,0,VALID,94.7217,VALID,0,VALID,23.428,VALID,43,VALID,0.671875,
2009-04-17, 02:29:04,VALID,997.69,VALID,0,VALID,94.7446,VALID,0,VALID,23.4493,VALID,43,VALID,0.654297,
2009-04-17, 02:30:04,VALID,997.707,VALID,0,VALID,94.7751,VALID,0,VALID,23.4298,VALID,43,VALID,0.6375,
2009-04-17, 02:31:04,VALID,997.675,VALID,0,VALID,94.7675,VALID,0,VALID,23.4298,VALID,43,VALID,0.521484,
2009-04-17, 02:32:04,VALID,997.674,VALID,0,VALID,94.7217,VALID,0,VALID,23.3695,VALID,43,VALID,0.421484,
2009-04-17, 02:33:04,VALID,997.698,VALID,0,VALID,94.7446,VALID,0,VALID,23.3695,VALID,43,VALID,0.336328,
2009-04-17, 02:34:04,VALID,997.691,VALID,0,VALID,94.7217,VALID,0,VALID,23.3305,VALID,43,VALID,0.300781,
2009-04-17, 02:35:04,VALID,997.7,VALID,0,VALID,94.7141,VALID,0,VALID,23.2915,VALID,43,VALID,0,
2009-04-17, 02:36:04,VALID,997.693,VALID,0,VALID,94.7065,VALID,0,VALID,23.2542,VALID,43,VALID,0,
2009-04-17, 02:37:04,VALID,997.694,VALID,0,VALID,94.6912,VALID,0,VALID,23.2542,VALID,43,VALID,0,
2009-04-17, 02:38:04,VALID,997.736,VALID,0,VALID,94.6912,VALID,0,VALID,23.1939,VALID,43,VALID,0,
2009-04-17, 02:39:04,VALID,997.723,VALID,0,VALID,94.7294,VALID,0.112286,VALID,23.1921,VALID,43,VALID,0,
2009-04-17, 02:40:04,VALID,997.758,VALID,0,VALID,94.7751,VALID,0.112286,VALID,23.2134,VALID,43,VALID,0,
2009-04-17, 02:41:04,VALID,997.766,VALID,0,VALID,94.798,VALID,0,VALID,23.1939,VALID,43,VALID,0.00351562,
2009-04-17, 02:42:04,VALID,997.73,VALID,0,VALID,94.8209,VALID,0.112286,VALID,23.2134,VALID,43,VALID,0.250391,
2009-04-17, 02:43:04,VALID,997.759,VALID,0,VALID,94.8743,VALID,0.112286,VALID,23.1726,VALID,65,VALID,0.536328,
2009-04-17, 02:44:04,VALID,997.755,VALID,0,VALID,94.9354,VALID,0.112286,VALID,23.2134,VALID,72,VALID,0.614062,
2009-04-17, 02:45:04,VALID,997.741,VALID,0,VALID,94.9888,VALID,0.112286,VALID,23.2117,VALID,75,VALID,0.578516,
2009-04-17, 02:46:04,VALID,997.772,VALID,0,VALID,94.9735,VALID,0.112286,VALID,23.2329,VALID,75,VALID,0.449609,
2009-04-17, 02:47:04,VALID,997.794,VALID,0,VALID,94.9659,VALID,0.112286,VALID,23.2524,VALID,75,VALID,0.421094,
2009-04-17, 02:48:04,VALID,997.786,VALID,0,VALID,94.9735,VALID,0,VALID,23.2524,VALID,75,VALID,0.408594,
2009-04-17, 02:49:04,VALID,997.815,VALID,0,VALID,94.943,VALID,0.112286,VALID,23.2312,VALID,75,VALID,0.404687,
2009-04-17, 02:50:04,VALID,997.785,VALID,0,VALID,94.9888,VALID,0.112286,VALID,23.2312,VALID,75,VALID,0.524219,
2009-04-17, 02:51:04,VALID,997.796,VALID,0,VALID,95.0193,VALID,0.112286,VALID,23.2719,VALID,75,VALID,0.614062,
2009-04-17, 02:52:04,VALID,997.805,VALID,0,VALID,95.0651,VALID,0.112286,VALID,23.311,VALID,74,VALID,0.735547,
2009-04-17, 02:53:04,VALID,997.791,VALID,0,VALID,95.0727,VALID,0,VALID,23.3518,VALID,73,VALID,0.725,
2009-04-17, 02:54:04,VALID,997.8,VALID,0,VALID,95.088,VALID,0,VALID,23.3695,VALID,73,VALID,0.725781,
2009-04-17, 02:55:04,VALID,997.809,VALID,0,VALID,94.9659,VALID,0,VALID,23.3695,VALID,73,VALID,0.765625,
2009-04-17, 02:56:04,VALID,997.774,VALID,0,VALID,94.8896,VALID,0,VALID,23.3713,VALID,73,VALID,0.749609,
2009-04-17, 02:57:04,VALID,997.756,VALID,0,VALID,94.8514,VALID,0,VALID,23.3713,VALID,73,VALID,0.807813,
2009-04-17, 02:58:04,VALID,997.744,VALID,0,VALID,94.7599,VALID,0,VALID,23.3518,VALID,74,VALID,0.750391,
2009-04-17, 02:59:04,VALID,997.733,VALID,0,VALID,94.6988,VALID,0,VALID,23.3305,VALID,90,VALID,0.809375,
2009-04-17, 03:00:04,VALID,997.731,VALID,0,VALID,94.6683,VALID,0,VALID,23.3127,VALID,91,VALID,0.825391,
2009-04-17, 03:01:04,VALID,997.754,VALID,0,VALID,94.6073,VALID,0,VALID,23.2719,VALID,92,VALID,0.621094,
2009-04-17, 03:02:04,VALID,997.736,VALID,0,VALID,94.6378,VALID,0,VALID,23.2737,VALID,92,VALID,0.642578,
2009-04-17, 03:03:04,VALID,997.726,VALID,0,VALID,94.6149,VALID,0,VALID,23.2719,VALID,92,VALID,0.552734,
2009-04-17, 03:04:04,VALID,997.736,VALID,0,VALID,94.6302,VALID,0,VALID,23.2719,VALID,92,VALID,0.521875,
2009-04-17, 03:05:04,VALID,997.739,VALID,0,VALID,94.5997,VALID,0,VALID,23.2524,VALID,92,VALID,0.382422,
2009-04-17, 03:06:04,VALID,997.763,VALID,0,VALID,94.5234,VALID,0.112286,VALID,23.2542,VALID,92,VALID,0.348047,
2009-04-17, 03:07:04,VALID,997.749,VALID,0,VALID,94.5081,VALID,0,VALID,23.2134,VALID,92,VALID,0.391406,
2009-04-17, 03:08:04,VALID,997.766,VALID,0,VALID,94.4928,VALID,0,VALID,23.1939,VALID,92,VALID,0.104687,
2009-04-17, 03:09:04,VALID,997.789,VALID,0,VALID,94.4928,VALID,0,VALID,23.1744,VALID,92,VALID,0.142969,
2009-04-17, 03:10:04,VALID,997.805,VALID,0,VALID,94.5462,VALID,0,VALID,23.1939,VALID,92,VALID,0.322656,
2009-04-17, 03:11:04,VALID,997.831,VALID,0,VALID,94.592,VALID,0,VALID,23.1957,VALID,92,VALID,0.333594,
2009-04-17, 03:12:04,VALID,997.793,VALID,0,VALID,94.592,VALID,0,VALID,23.1744,VALID,92,VALID,0.251172,
2009-04-17, 03:13:04,VALID,997.829,VALID,0,VALID,94.6454,VALID,0,VALID,23.2134,VALID,92,VALID,0.353125,
2009-04-17, 03:14:04,VALID,997.835,VALID,0,VALID,94.6302,VALID,0,VALID,23.2329,VALID,92,VALID,0.323438,
2009-04-17, 03:15:04,VALID,997.868,VALID,0,VALID,94.531,VALID,0,VALID,23.2134,VALID,92,VALID,0.236328,
2009-04-17, 03:16:04,VALID,997.838,VALID,0,VALID,94.4852,VALID,0,VALID,23.1939,VALID,92,VALID,0.175,
2009-04-17, 03:17:04,VALID,997.856,VALID,0,VALID,94.4547,VALID,0,VALID,23.1939,VALID,92,VALID,0.141797,
2009-04-17, 03:18:04,VALID,997.868,VALID,0,VALID,94.4089,VALID,0,VALID,23.1939,VALID,92,VALID,0.155859,
2009-04-17, 03:19:04,VALID,997.87,VALID,0,VALID,94.3631,VALID,0,VALID,23.1762,VALID,92,VALID,0.084375,
2009-04-17, 03:20:04,VALID,997.868,VALID,0,VALID,94.4013,VALID,0,VALID,23.1549,VALID,92,VALID,0,
2009-04-17, 03:21:04,VALID,997.847,VALID,0,VALID,94.4089,VALID,0,VALID,23.1762,VALID,92,VALID,0,
2009-04-17, 03:22:04,VALID,997.847,VALID,0,VALID,94.4318,VALID,0,VALID,23.1566,VALID,92,VALID,0.00390625,
2009-04-17, 03:23:04,VALID,997.838,VALID,0,VALID,94.4623,VALID,0,VALID,23.1371,VALID,92,VALID,0,
2009-04-17, 03:24:04,VALID,997.834,VALID,0,VALID,94.4852,VALID,0,VALID,23.1159,VALID,92,VALID,0.171094,
2009-04-17, 03:25:04,VALID,997.834,VALID,0,VALID,94.386,VALID,0,VALID,23.1176,VALID,92,VALID,0.307813,
2009-04-17, 03:26:04,VALID,997.847,VALID,0,VALID,94.5234,VALID,0,VALID,23.1176,VALID,92,VALID,0.349219,
2009-04-17, 03:27:04,VALID,997.849,VALID,0,VALID,94.592,VALID,0,VALID,23.1371,VALID,92,VALID,0.36875,
2009-04-17, 03:28:04,VALID,997.869,VALID,0,VALID,94.6302,VALID,0,VALID,23.1371,VALID,92,VALID,0.290234,
2009-04-17, 03:29:04,VALID,997.845,VALID,0,VALID,94.676,VALID,0,VALID,23.1159,VALID,92,VALID,0.322266,
2009-04-17, 03:30:04,VALID,997.837,VALID,0,VALID,94.6378,VALID,0,VALID,23.1159,VALID,92,VALID,0.329688,
2009-04-17, 03:31:04,VALID,997.816,VALID,0,VALID,94.5768,VALID,0,VALID,23.0769,VALID,92,VALID,0.380078,
2009-04-17, 03:32:04,VALID,997.829,VALID,0,VALID,94.6302,VALID,0,VALID,23.0981,VALID,78,VALID,0.483984,
2009-04-17, 03:33:04,VALID,997.826,VALID,0,VALID,94.6226,VALID,0,VALID,23.0769,VALID,69,VALID,0.382813,
2009-04-17, 03:34:04,VALID,997.825,VALID,0,VALID,94.6073,VALID,0,VALID,23.0591,VALID,69,VALID,0.378516,
2009-04-17, 03:35:04,VALID,997.795,VALID,0,VALID,94.6226,VALID,0,VALID,23.0378,VALID,69,VALID,0.280469,
2009-04-17, 03:36:04,VALID,997.793,VALID,0,VALID,94.6378,VALID,0,VALID,23.0591,VALID,69,VALID,0.240625,
2009-04-17, 03:37:04,VALID,997.805,VALID,0,VALID,94.6531,VALID,0,VALID,23.0396,VALID,69,VALID,0.216797,
2009-04-17, 03:38:04,VALID,997.776,VALID,0,VALID,94.6607,VALID,0,VALID,23.0591,VALID,69,VALID,0.202344,
2009-04-17, 03:39:04,VALID,997.802,VALID,0,VALID,94.6302,VALID,0,VALID,23.0591,VALID,69,VALID,0.254687,
2009-04-17, 03:40:04,VALID,997.771,VALID,0,VALID,94.6378,VALID,0,VALID,23.0378,VALID,69,VALID,0.251563,
2009-04-17, 03:41:04,VALID,997.786,VALID,0,VALID,94.6454,VALID,0,VALID,23.0573,VALID,69,VALID,0.108984,
2009-04-17, 03:42:04,VALID,997.82,VALID,0,VALID,94.6607,VALID,0,VALID,23.0786,VALID,69,VALID,0.198828,
2009-04-17, 03:43:04,VALID,997.818,VALID,0,VALID,94.6683,VALID,0,VALID,23.0786,VALID,69,VALID,0.249609,
2009-04-17, 03:44:04,VALID,997.811,VALID,0,VALID,94.6531,VALID,0,VALID,23.0573,VALID,69,VALID,0.286328,
2009-04-17, 03:45:04,VALID,997.845,VALID,0,VALID,94.6607,VALID,0,VALID,23.0769,VALID,69,VALID,0.256641,
2009-04-17, 03:46:04,VALID,997.854,VALID,0,VALID,94.6836,VALID,0,VALID,23.1176,VALID,69,VALID,0.326953,
2009-04-17, 03:47:04,VALID,997.835,VALID,0,VALID,94.676,VALID,0,VALID,23.0981,VALID,69,VALID,0.302734,